[[{"header":{"parameterUnit":"m.s-1","parameterCategory":1,"la1":30.2991,"la2":30.254,"lo1":-89.0895,"lo2":-89.0444,"dy":0.0017,"dx":0.0017,"nx":28,"ny":28,"refTime":"2024-03-23T21:00:00:Z","depth":0,"parameterNumber":2,"parameterNumberName":"U-component_of_WINDS"},"data":[0,0,0,0,0,0,0,0,0,0,0,0,0,0,0,0,0,0,0,0,0,0,0,0,0,0,0,0,0,0,0,0,0,0,0,0,0,0,0,0,0,0,0,0,0,0,0,0,0,0,0,0,0,0,0,0,0,0,-8.6348,-8.635,0,-8.6599,-8.6601,-8.6604,-8.6664,-8.6662,-8.666,-8.6659,-8.691,-8.6918,-8.6926,0,0,0,0,0,0,0,0,0,0,0,0,0,-8.5915,-8.5923,-8.6347,-8.635,-8.6354,-8.6598,-8.6602,-8.6605,-8.6664,-8.6662,-8.666,-8.6658,-8.6907,-8.6917,-8.6927,0,0,0,0,0,0,0,0,0,0,0,0,0,-8.6128,-8.5925,-8.6347,-8.6413,-8.6421,-8.6597,-8.6602,-8.6606,-8.6665,-8.6662,-8.6659,-8.6657,-8.6904,-8.6916,-8.6928,-8.7055,0,0,-8.6966,-8.6971,0,0,0,0,0,0,0,0,-8.6116,-8.6144,-8.64,-8.6409,-8.6418,-8.6598,-8.6541,-8.6756,-8.6665,-8.6572,-8.6659,-8.6656,-8.6808,-8.6828,-8.688,-8.7066,-8.7077,-8.6967,-8.6974,-8.698,-8.6983,0,0,0,0,0,0,0,-8.6101,-8.6133,-8.6447,-8.6404,-8.6415,-8.6428,-8.6456,-8.6582,-8.67,-8.658,-8.6585,-8.6614,-8.6812,-8.6868,-8.6886,-8.7081,-8.6967,-8.6978,-8.6985,-8.699,-8.7384,-8.7387,0,0,0,0,0,0,-8.6075,-8.612,-8.6439,-8.6454,-8.6258,-8.6438,-8.6469,-8.6542,-8.6699,-8.6721,-8.6616,-8.6616,-8.6848,-8.6872,-8.6895,-8.7053,-8.698,-8.6991,-8.6998,-8.7381,-8.7385,-8.7388,0,0,0,0,0,0,-8.6066,-8.6103,-8.6428,-8.6289,-8.6331,-8.6448,-8.653,-8.6549,-8.6605,-8.6727,-8.6748,-8.6652,-8.6847,-8.6878,-8.7015,-8.7063,-8.6997,-8.7008,-8.7377,-8.7382,-8.7386,-8.7369,0,0,0,0,0,0,-8.6053,-8.6099,-8.6149,-8.629,-8.6339,-8.6545,-8.6533,-8.6555,-8.6627,-8.6629,-8.6766,-8.6786,-8.6847,-8.6996,-8.7027,-8.7078,-8.7018,-8.7373,-8.7379,-8.7385,-8.7366,-8.7373,-8.7379,0,0,0,0,0,-8.6037,-8.6133,-8.6151,-8.6189,-8.6404,-8.6547,-8.6575,-8.6646,-8.663,-8.6681,-8.676,-8.6781,-8.7054,-8.701,-8.7045,-8.7101,-8.7371,-8.7378,-8.7384,-8.7363,-8.7372,-8.7378,0,0,0,0,0,0,-8.5992,-8.6152,-8.6175,-8.6319,-8.642,-8.6557,-8.6623,-8.6652,-8.6758,-8.6755,-8.6837,-8.6867,-8.6999,-8.7064,-8.7013,-8.7232,-8.7212,-8.7226,-8.7183,-8.7192,-8.7198,-8.7178,-8.7028,0,0,0,0,0,-8.6,-8.6105,-8.6239,-8.6353,-8.6403,-8.6504,-8.6569,-8.6616,-8.6722,-8.6764,-8.6853,-8.6954,-8.7063,-8.7132,-8.7238,-8.7378,-8.7407,-8.7434,-8.744,-8.7444,-8.7454,-8.7532,-8.7545,-8.741,-8.741,-8.741,0,0,-8.6015,-8.6115,-8.6176,-8.6347,-8.643,-8.6535,-8.6539,-8.665,-8.6729,-8.6781,-8.6915,-8.6985,-8.7103,-8.7241,-8.7307,-8.73,-8.7499,-8.7453,-8.7456,-8.7463,-8.7541,-8.7553,-8.7564,-8.7415,-8.7414,-8.7414,0,0,-8.6095,-8.6183,-8.6288,-8.6372,-8.65,-8.6567,-8.6592,-8.6727,-8.6775,-8.6913,-8.6954,-8.7049,-8.7234,-8.7316,-8.7382,-8.7498,-8.7522,-8.7531,-8.7561,-8.7637,-8.7647,-8.7657,-8.7696,-8.771,-8.7541,-8.7541,-8.7541,0,-8.6097,-8.6259,-8.6337,-8.6447,-8.652,-8.6576,-8.6682,-8.6759,-8.6914,-8.6962,-8.6954,-8.7188,-8.7272,-8.743,-8.7459,-8.7511,-8.7541,-8.7513,-8.764,-8.765,-8.7661,-8.7699,-8.7714,-8.7542,-8.7541,-8.7541,-8.7541,0,-8.6254,-8.6366,-8.6435,-8.6585,-8.6667,-8.6774,-8.6867,-8.6941,-8.6981,-8.7049,-8.7188,-8.7292,-8.742,-8.7462,-8.7501,-8.7627,-8.7618,-8.7624,-8.7604,-8.7672,-8.7709,-8.7725,-8.7542,-8.7542,-8.7542,-8.7542,0,0,-8.6308,-8.6504,-8.6527,-8.6597,-8.6743,-8.683,-8.694,-8.7068,-8.7128,-8.7235,-8.7327,-8.7485,-8.7491,-8.7567,-8.7617,-8.7683,-8.7766,-8.7681,-8.7685,-8.7691,-8.7909,-8.7901,-8.7917,-8.7785,-8.7788,-8.7791,-8.7898,0,-8.6405,-8.6604,-8.6679,-8.6842,-8.6946,-8.7002,-8.7098,-8.7197,-8.7265,-8.7362,-8.7436,-8.7545,-8.7547,-8.7593,-8.7662,-8.7741,-8.7811,-8.7735,-8.7869,-8.7873,-8.7834,-8.7937,-8.7929,-8.8025,-8.7913,-8.7916,-8.7918,0,-8.6543,-8.6652,-8.6826,-8.6961,-8.7007,-8.7092,-8.7215,-8.7309,-8.7423,-8.7467,-8.7553,-8.76,-8.7716,-8.7693,-8.7853,-8.78,-8.7861,-8.7909,-8.7914,-8.7926,-8.7896,-8.7948,-8.8057,-8.807,-8.7942,-8.794,-8.7938,0,-8.6562,-8.6753,-8.6882,-8.694,-8.7101,-8.7159,-8.7228,-8.7341,-8.7413,-8.7522,-8.7569,-8.7689,-8.7754,-8.7845,-8.7922,-8.7899,-8.8075,-8.8059,-8.8113,-8.8111,-8.8144,-8.814,-8.8261,-8.8189,-8.8189,-8.8188,-8.8188,0,-8.6659,-8.6762,-8.6893,-8.6971,-8.7089,-8.7175,-8.7288,-8.7361,-8.7461,-8.7554,-8.7611,-8.7696,-8.7795,-8.7893,-8.7955,-8.8077,-8.8107,-8.8145,-8.8159,-8.8138,-8.8132,-8.8175,-8.8169,-8.8192,-8.8191,-8.8191,-8.819,0,-8.6698,-8.679,-8.6934,-8.7076,-8.7114,-8.7194,-8.7315,-8.7393,-8.7465,-8.7582,-8.7614,-8.7726,-8.7845,-8.7933,-8.8086,-8.8128,-8.8258,-8.8274,-8.8219,-8.8226,-8.8275,-8.8268,-8.8424,-8.8448,-8.8362,-8.8363,-8.8364,0,-8.6752,-8.6833,-8.6985,-8.7053,-8.7123,-8.723,-8.7306,-8.7394,-8.747,-8.7608,-8.7669,-8.7793,-8.7895,-8.8083,-8.8177,-8.8295,-8.8312,-8.8359,-8.833,-8.8306,-8.831,-8.8302,-8.831,-8.8361,-8.8362,-8.8362,-8.8363,0,-8.6838,-8.688,-8.6987,-8.7111,-8.72,-8.7301,-8.7403,-8.7455,-8.7562,-8.7644,-8.7768,-8.7848,-8.8006,-8.8127,-8.8255,-8.8325,-8.8361,-8.8372,-8.839,-8.8367,-8.8331,-8.8349,-8.8227,-8.8367,-8.8366,-8.8366,-8.8366,-8.8366,-8.6885,-8.6959,-8.7078,-8.7196,-8.7283,-8.7378,-8.7458,-8.7542,-8.7647,-8.7783,-8.783,-8.7957,-8.8071,-8.8247,-8.8319,-8.8419,-8.8418,-8.8445,-8.8451,-8.8455,-8.8453,-8.8319,-8.8443,-8.8443,-8.8443,-8.8443,-8.8443,0,-8.6971,-8.7051,-8.7159,-8.7301,-8.7394,-8.7424,-8.7539,-8.7614,-8.7726,-8.783,-8.7931,-8.8073,-8.8192,-8.8297,-8.842,-8.848,-8.85,-8.8509,-8.8504,-8.8519,-8.8448,-8.8418,-8.8491,-8.8491,-8.8491,-8.8491,-8.8491,-8.8491,-8.7026,-8.7154,-8.7211,-8.7383,-8.7462,-8.7589,-8.7652,-8.7739,-8.7823,-8.7979,-8.8079,-8.8148,-8.8253,-8.8385,-8.8495,-8.8523,-8.8564,-8.8569,-8.86,-8.853,-8.8524,-8.8518,-8.8491,-8.8578,-8.8578,-8.8663,-8.8664,-8.8664]},{"header":{"parameterUnit":"m.s-1","parameterCategory":1,"la1":30.2991,"la2":30.254,"lo1":-89.0895,"lo2":-89.0444,"dy":0.0017,"dx":0.0017,"nx":28,"ny":28,"refTime":"2024-03-23T21:00:00:Z","depth":0,"parameterNumber":3,"parameterNumberName":"V-component_of_WINDS"},"data":[0,0,0,0,0,0,0,0,0,0,0,0,0,0,0,0,0,0,0,0,0,0,0,0,0,0,0,0,0,0,0,0,0,0,0,0,0,0,0,0,0,0,0,0,0,0,0,0,0,0,0,0,0,0,0,0,0,0,5.8728,5.8729,0,5.8835,5.8836,5.8838,5.8847,5.8845,5.8844,5.8843,5.895,5.8954,5.8957,0,0,0,0,0,0,0,0,0,0,0,0,0,5.853,5.8533,5.8728,5.8729,5.873,5.8835,5.8836,5.8838,5.8847,5.8845,5.8844,5.8843,5.8949,5.8953,5.8958,0,0,0,0,0,0,0,0,0,0,0,0,0,5.8624,5.8535,5.8728,5.8748,5.875,5.8835,5.8837,5.8838,5.8847,5.8845,5.8844,5.8842,5.8947,5.8953,5.8958,5.9029,0,0,5.8976,5.8979,0,0,0,0,0,0,0,0,5.8619,5.8631,5.8743,5.8746,5.875,5.8826,5.8806,5.8902,5.8848,5.881,5.8843,5.8841,5.891,5.8919,5.8942,5.9034,5.9039,5.8977,5.898,5.8983,5.8985,0,0,0,0,0,0,0,5.8612,5.8627,5.877,5.8745,5.8749,5.8751,5.8763,5.8824,5.8868,5.8813,5.8814,5.8827,5.8911,5.8937,5.8945,5.904,5.8977,5.8982,5.8986,5.8988,5.9198,5.92,0,0,0,0,0,0,5.8602,5.8621,5.8767,5.8773,5.8679,5.8756,5.8769,5.8803,5.8868,5.8876,5.8828,5.8827,5.8928,5.8938,5.8949,5.9038,5.8983,5.8988,5.8992,5.9196,5.9199,5.9201,0,0,0,0,0,0,5.8598,5.8615,5.8762,5.8698,5.8717,5.8761,5.88,5.8806,5.8832,5.8879,5.8887,5.8847,5.8927,5.894,5.901,5.9042,5.8991,5.8996,5.9194,5.9197,5.92,5.9215,0,0,0,0,0,0,5.8592,5.8613,5.8641,5.8698,5.872,5.8822,5.8801,5.8809,5.8842,5.8841,5.8898,5.8906,5.8926,5.9001,5.9016,5.9049,5.9001,5.9191,5.9195,5.9199,5.9212,5.9219,5.9224,0,0,0,0,0,5.8585,5.8639,5.8642,5.866,5.8755,5.8824,5.8836,5.886,5.8845,5.8873,5.8904,5.8904,5.9036,5.9008,5.9025,5.906,5.9189,5.9194,5.9199,5.921,5.9217,5.9224,0,0,0,0,0,0,5.8582,5.8647,5.8651,5.8725,5.877,5.8825,5.8861,5.8867,5.8915,5.8912,5.8938,5.8951,5.9021,5.9047,5.9015,5.9133,5.9111,5.9119,5.9114,5.9121,5.9127,5.912,5.9006,0,0,0,0,0,5.8591,5.8642,5.8695,5.8756,5.8778,5.8816,5.8847,5.8862,5.8908,5.8926,5.8962,5.9006,5.9057,5.9091,5.914,5.9216,5.923,5.9249,5.9255,5.9259,5.9266,5.9311,5.9321,5.9216,5.9216,5.9216,0,0,5.8608,5.865,5.868,5.8757,5.8792,5.8845,5.8831,5.8887,5.8926,5.8934,5.9003,5.9031,5.9082,5.9155,5.919,5.918,5.9298,5.9265,5.9269,5.9273,5.9317,5.9327,5.9335,5.922,5.9219,5.9219,0,0,5.8667,5.8703,5.8759,5.8796,5.8851,5.8876,5.889,5.8946,5.8966,5.9035,5.9043,5.909,5.9178,5.9215,5.9245,5.9321,5.9324,5.9337,5.9368,5.9411,5.9419,5.9427,5.9456,5.9466,5.9343,5.9343,5.9343,0,5.8681,5.8761,5.8787,5.8843,5.8878,5.8889,5.8947,5.898,5.9049,5.9072,5.906,5.9173,5.9208,5.9292,5.9311,5.9334,5.9351,5.933,5.9416,5.9424,5.9431,5.9459,5.947,5.9345,5.9344,5.9344,5.9344,0,5.8778,5.8833,5.8872,5.894,5.8978,5.9034,5.9069,5.9105,5.9117,5.9143,5.9215,5.9258,5.9318,5.9339,5.935,5.9426,5.9418,5.9411,5.9389,5.9442,5.9469,5.948,5.9346,5.9346,5.9346,5.9345,0,0,5.8837,5.892,5.8934,5.8966,5.9029,5.9073,5.913,5.9191,5.9222,5.9269,5.9319,5.9395,5.939,5.9424,5.9439,5.9477,5.9538,5.9466,5.9467,5.9479,5.9626,5.9632,5.9644,5.954,5.9542,5.9544,5.9623,0,5.8904,5.9009,5.9034,5.9123,5.9176,5.9189,5.924,5.9284,5.9311,5.9359,5.9389,5.9443,5.9431,5.9452,5.949,5.9522,5.9568,5.9517,5.9587,5.959,5.9576,5.9658,5.9664,5.9737,5.9633,5.9635,5.9636,0,5.8997,5.9049,5.9144,5.9203,5.9226,5.9271,5.933,5.9376,5.9427,5.9444,5.9484,5.9497,5.9558,5.9533,5.9618,5.9583,5.9613,5.9634,5.9637,5.9646,5.9617,5.967,5.976,5.9772,5.9653,5.9651,5.965,0,5.9034,5.9126,5.9196,5.9223,5.9293,5.9325,5.9355,5.9404,5.944,5.9491,5.9515,5.9572,5.9604,5.9648,5.9676,5.9654,5.976,5.9736,5.9776,5.9776,5.9799,5.9797,5.9896,5.9816,5.9815,5.9815,5.9815,0,5.9107,5.9165,5.9214,5.9257,5.9323,5.9352,5.9417,5.9447,5.9492,5.9541,5.9554,5.96,5.9634,5.9685,5.9707,5.9776,5.9789,5.9805,5.9811,5.9805,5.9803,5.9826,5.9822,5.9818,5.9817,5.9817,5.9816,0,5.916,5.9194,5.9272,5.9332,5.9349,5.9395,5.9447,5.949,5.9518,5.958,5.9597,5.964,5.9701,5.9734,5.9809,5.9824,5.9902,5.9903,5.9885,5.9888,5.9927,5.9924,6.0045,6.0064,5.9969,5.997,5.9971,0,5.9205,5.9251,5.9317,5.9352,5.9384,5.9439,5.9477,5.9507,5.9546,5.9609,5.9644,5.9706,5.9757,5.9854,5.9892,5.995,5.9955,5.9993,5.9963,5.9957,5.9958,5.9956,5.9961,5.9999,6.0,6.0,6.0001,0,5.9283,5.9299,5.9353,5.9414,5.9458,5.9507,5.9555,5.9583,5.9622,5.9664,5.9728,5.9768,5.9846,5.9908,5.997,6.0001,6.0008,6.001,6.0023,6.0019,6.0007,6.0016,5.9901,6.0007,6.0007,6.0006,6.0006,6.0006,5.9335,5.9378,5.9432,5.9492,5.9532,5.9578,5.9622,5.9656,5.971,5.9778,5.9792,5.986,5.9911,5.9995,6.0028,6.0082,6.0074,6.0092,6.0097,6.0101,6.0104,5.9998,6.0093,6.0092,6.0092,6.0092,6.0092,0,5.9416,5.9452,5.9508,5.9576,5.9624,5.9628,5.9682,5.9722,5.9781,5.9829,5.9881,5.9955,6.0015,6.0059,6.0121,6.0156,6.0161,6.0171,6.017,6.0177,6.0106,6.009,6.0166,6.0166,6.0166,6.0166,6.0166,6.0166,5.9464,5.9537,5.9559,5.9652,5.9688,5.9755,5.9786,5.9829,5.9868,5.995,6.0002,6.003,6.0078,6.0144,6.02,6.0211,6.0234,6.0245,6.0257,6.019,6.0182,6.0174,6.0159,6.0249,6.0249,6.0323,6.0324,6.0325]}]]